LUNDI 24 JUIN ; MARCHE NORDIQUE ; CROIX DU TREYVE
SEJOUR TYROL ; DU 8 au 15 JUIN
NIEDERTHAI du 8 au 15 juin (hôtel Tauferberg)
Pour ces 27 Pieds Plats, bien de chez nous qui se régalent volontiers, comme tout Français qui se respecte, de la langue de bœuf, et qui pratiquent parfois la langue de bois, le contact avec la langue de Goethe a de quoi surprendre. Mais quoi de plus agréable pour ces messieurs que de dire Bitte à une belle Autrichienne sans se prendre une main pleine de doigts dans la gueule ?
Guten Morgen fräulein, Guten Tag, Bitte, Danke, Hallo, Auf Wiedersehen… Quelques mots vite retenus qui font plaisir à nos interlocuteurs et nous rendent plus civils, à défaut d’être plus civilisés.
Cette semaine Tyrolienne s’est avérée plus qu’agréable. Le temps nous a gâté certes, mais l’accueil, la nourriture, les visites des sites touristiques, et les superbes paysages que nous avons découverts ne pouvaient que satisfaire notre envie d’ailleurs.
Les souvenirs s’accumulent au fil des jours, renforcés par nos mémoires numériques…Les noms défilent dans nos têtes et nous replongent au cœur de nos randonnées, faisant resurgir les images, les odeurs, les rencontres.
La cascade de Stuibenfall à Umhausen dans la vallée d’Ötztal et le Waldcafé Stuböbele, la vallée d’Horlachbach, les lacs de Biberwier (Mittersee, Blindsee, Weissensee) et l’auberge Zugspitzblick (Hum ! le Tiroler Gröstl et le Germknödel), Gries et la rivière Fischbach ou la boucle de Windachalm à Sölden, Innsbruck et le massif de la Nordkette, le funiculaire de la Hungerburg, le téléphérique du Seegrube, et celui du Hafelekar, le Hafelekarsitze (2 334 m), l’Alpenzoo, le tremplin du Bergisel, le Das Tyrol Panorama, la basilique Wilten, le château d’Ambras, le Swarovski Kristallwelten, le musée Hasseg à Hall in Tyrol, le téléphérique Patscherkofelbahn (2 248 m)…
Innsbruck et son petit toit d’or (Goldenes Dachl), le beffroi (La Stadtturm), la cathédrale Saint Jacques, le palais impérial des Hofburg, l’église de la cour (Hofkirche), Maria-Theresien Stasse, la basilique Wilten ; et l’Inn charriant ses flots tumultueux, grossit par la fonte des neiges et les averses…
Rêvons encore à ces noms gutturaux qui nous ont pourtant réservé des souvenirs apaisants, pleins de beauté.
Il n’y a pas que la bière qui nous donne envie de pousser la tyrolienne !
Auf Wiedersehen
JEUDI 20 JUIN ; 1er groupe ; LES COUSINADES ; ROSIERES
Cousinades habituelles avec le groupe de randonneurs de la Détente. Marche organisée par la Détente.
Pierre Masson cherche un club de marche avec son GPS (photo)
IL hésite entre laRic ou le Chambon !! Coco
LUNDI 17 JUIN ; MARCHE DOUCE ; ANDREZIEUX
LUNDI 17 JUIN ; MARCHE NORDIQUE ; GOURGOIS
Grosse chaleur !! On attend juillet pour changer d'horaire...
JEUDI 13 JUIN ; 2ème groupe ; ESTIVAREILLES
gi 13/06 st Jeures
pm marche epis 12/06 cessieux
Pour cette sortie 12 Epis et 3 pp. La sortie avait pourtant bien commencée ,mais avec notre guide c'est jamais simple ,on est parti en hors piste à travers bois ,je soupçonne qu'il voulait voir si les champignons pointaient leur nez . Mais on se retrouve toujours avec jl et c4est dans une jolie clairière que l'on dévoré nos casse croûte ,après retour au bercail par des chemins encore détournés .
la balade de 12km c'est transformée en15km le guide a perdu encore une étoile .dommage il lui en reste pas beaucoup![]()

/image%2F0724814%2F20190624%2Fob_4a432d_20190610-134611.jpg)
/image%2F0724814%2F20190624%2Fob_0057b5_20190610-134616.jpg)
/image%2F0724814%2F20190624%2Fob_4436a6_20190610-134619.jpg)
/image%2F0724814%2F20190624%2Fob_dbb039_img-0023.jpg)
/image%2F0724814%2F20190624%2Fob_d282ed_img-0024.jpg)
/image%2F0724814%2F20190624%2Fob_aecb0a_img-0027.jpg)
/image%2F0724814%2F20190624%2Fob_5347f4_img-0030.jpg)
/image%2F0724814%2F20190624%2Fob_20c6b1_img-0032.jpg)
/image%2F0724814%2F20190624%2Fob_873690_img-0050.jpg)
/image%2F0724814%2F20190624%2Fob_55f68a_img-0060.jpg)
/image%2F0724814%2F20190624%2Fob_0d1231_img-0064.jpg)
/image%2F0724814%2F20190624%2Fob_e391a6_img-0085.jpg)
/image%2F0724814%2F20190624%2Fob_fe6a22_img-0091.jpg)
/image%2F0724814%2F20190624%2Fob_531e95_img-0094.jpg)
/image%2F0724814%2F20190624%2Fob_475e45_img-0104.jpg)
/image%2F0724814%2F20190624%2Fob_4fb138_img-0106.jpg)
/image%2F0724814%2F20190624%2Fob_7e789f_img-0115.jpg)
/image%2F0724814%2F20190624%2Fob_4f356c_img-0120.jpg)
/image%2F0724814%2F20190624%2Fob_64055b_img-0122.jpg)
/image%2F0724814%2F20190624%2Fob_086187_img-0123.jpg)
/image%2F0724814%2F20190624%2Fob_804c3d_img-0125.jpg)
/image%2F0724814%2F20190624%2Fob_600176_img-0128.jpg)
/image%2F0724814%2F20190624%2Fob_7d066f_img-0131.jpg)
/image%2F0724814%2F20190624%2Fob_6d127b_img-0133.jpg)
/image%2F0724814%2F20190624%2Fob_a747ab_img-0136.jpg)
/image%2F0724814%2F20190624%2Fob_8ae26f_img-0138.jpg)
/image%2F0724814%2F20190624%2Fob_e5c828_img-0140.jpg)
/image%2F0724814%2F20190624%2Fob_81d8c1_img-0141.jpg)
/image%2F0724814%2F20190624%2Fob_f7654d_img-0147.jpg)
/image%2F0724814%2F20190624%2Fob_e07516_p1030962.jpg)
/image%2F0724814%2F20190624%2Fob_b56b20_p1030973.jpg)
/image%2F0724814%2F20190624%2Fob_c49725_p1030979.jpg)
/image%2F0724814%2F20190624%2Fob_a22a82_20190614-124515.jpg)
/image%2F0724814%2F20190624%2Fob_17df75_20190614-124604.jpg)
/image%2F0724814%2F20190624%2Fob_438c3b_img-0474.jpg)
/image%2F0724814%2F20190624%2Fob_59361b_img-0475.jpg)
/image%2F0724814%2F20190624%2Fob_0f5df1_img-0483.jpg)
/image%2F0724814%2F20190624%2Fob_d0d2b7_img-0493.jpg)
/image%2F0724814%2F20190624%2Fob_678b50_img-0494.jpg)
/image%2F0724814%2F20190624%2Fob_d3ea64_img-0496.jpg)
/image%2F0724814%2F20190624%2Fob_7f7724_img-0503.jpg)
/image%2F0724814%2F20190624%2Fob_162322_img-0504.jpg)
/image%2F0724814%2F20190624%2Fob_946d1c_img-0505.jpg)
/image%2F0724814%2F20190624%2Fob_5b70bc_img-0506.jpg)
/image%2F0724814%2F20190624%2Fob_d88a78_img-0509.jpg)
/image%2F0724814%2F20190624%2Fob_0d0511_img-0510.jpg)
/image%2F0724814%2F20190624%2Fob_26ad8f_img-0511.jpg)
/image%2F0724814%2F20190624%2Fob_c99b10_img-0513.jpg)
/image%2F0724814%2F20190624%2Fob_1f1fce_img-0523.jpg)
/image%2F0724814%2F20190624%2Fob_23a836_img-0527.jpg)
/image%2F0724814%2F20190624%2Fob_ea1fd5_img-0528.jpg)
/image%2F0724814%2F20190624%2Fob_59be2f_img-0529.jpg)
/image%2F0724814%2F20190624%2Fob_c18266_img-0530.jpg)
/image%2F0724814%2F20190624%2Fob_4975bf_img-0531.jpg)
/image%2F0724814%2F20190624%2Fob_548c05_img-0535.jpg)
/image%2F0724814%2F20190624%2Fob_2f1dd0_img-0536.jpg)
/image%2F0724814%2F20190624%2Fob_c4d45a_img-0537.jpg)
/image%2F0724814%2F20190624%2Fob_c7fc68_img-0538.jpg)
/image%2F0724814%2F20190624%2Fob_3ba025_img-0541.jpg)
/image%2F0724814%2F20190624%2Fob_1b13c5_p1040145.jpg)
/image%2F0724814%2F20190624%2Fob_8a1dca_p1040149.jpg)
/image%2F0724814%2F20190624%2Fob_cad66d_p1040151.jpg)
/image%2F0724814%2F20190624%2Fob_9b4e3d_p1040157.jpg)
/image%2F0724814%2F20190624%2Fob_846a27_img-0390.jpg)
/image%2F0724814%2F20190624%2Fob_5027d6_img-0392.jpg)
/image%2F0724814%2F20190624%2Fob_f2a301_img-0398.jpg)
/image%2F0724814%2F20190624%2Fob_2afb4b_img-0407.jpg)
/image%2F0724814%2F20190624%2Fob_e8aca3_img-0418.jpg)
/image%2F0724814%2F20190624%2Fob_a6de4e_img-0424.jpg)
/image%2F0724814%2F20190624%2Fob_ec33dc_img-0425.jpg)
/image%2F0724814%2F20190624%2Fob_d6ace2_img-0429.jpg)
/image%2F0724814%2F20190624%2Fob_1a2d07_img-0430.jpg)
/image%2F0724814%2F20190624%2Fob_a9ceee_img-0432.jpg)
/image%2F0724814%2F20190624%2Fob_de4ba2_img-0433.jpg)
/image%2F0724814%2F20190624%2Fob_19397f_img-0450.jpg)
/image%2F0724814%2F20190624%2Fob_b4225f_img-0452.jpg)
/image%2F0724814%2F20190624%2Fob_028062_img-0453.jpg)
/image%2F0724814%2F20190624%2Fob_f573ce_img-0468.jpg)
/image%2F0724814%2F20190624%2Fob_9f5faf_img-0473.jpg)
/image%2F0724814%2F20190624%2Fob_7f1cdf_img-0474.jpg)
/image%2F0724814%2F20190624%2Fob_07a1d0_img-0475.jpg)
/image%2F0724814%2F20190624%2Fob_04e26e_img-0483.jpg)
/image%2F0724814%2F20190624%2Fob_9d04ed_img-0493.jpg)
/image%2F0724814%2F20190624%2Fob_0ad0f2_img-0495.jpg)
/image%2F0724814%2F20190624%2Fob_b4a4fa_20190612-155710.jpg)
/image%2F0724814%2F20190624%2Fob_9beff6_img-0267.jpg)
/image%2F0724814%2F20190624%2Fob_855f31_img-0276.jpg)
/image%2F0724814%2F20190624%2Fob_6ad245_img-0286.jpg)
/image%2F0724814%2F20190624%2Fob_f8fbdb_img-0293.jpg)
/image%2F0724814%2F20190624%2Fob_d5c051_img-0298.jpg)
/image%2F0724814%2F20190624%2Fob_e3ffec_img-0308.jpg)
/image%2F0724814%2F20190624%2Fob_9ea645_img-0314.jpg)
/image%2F0724814%2F20190624%2Fob_bad4d5_img-0317.jpg)
/image%2F0724814%2F20190624%2Fob_57c64a_img-0336.jpg)
/image%2F0724814%2F20190624%2Fob_dde8e0_img-0365.jpg)
/image%2F0724814%2F20190624%2Fob_68cbad_img-0367.jpg)
/image%2F0724814%2F20190624%2Fob_9b87b7_img-0378.jpg)
/image%2F0724814%2F20190624%2Fob_bafe7f_img-0379.jpg)
/image%2F0724814%2F20190624%2Fob_fc5956_p1040085.jpg)
/image%2F0724814%2F20190624%2Fob_815ccf_p1040097.jpg)
/image%2F0724814%2F20190624%2Fob_01fe48_20190611-154331.jpg)
/image%2F0724814%2F20190624%2Fob_ae0b0f_20190611-154254.jpg)
/image%2F0724814%2F20190624%2Fob_560917_20190611-154331.jpg)
/image%2F0724814%2F20190624%2Fob_7f6229_20190611-154539.jpg)
/image%2F0724814%2F20190624%2Fob_cefacb_img-0146.jpg)
/image%2F0724814%2F20190624%2Fob_bd6b45_img-0155.jpg)
/image%2F0724814%2F20190624%2Fob_5d50e8_img-0169.jpg)
/image%2F0724814%2F20190624%2Fob_d5ed66_img-0177.jpg)
/image%2F0724814%2F20190624%2Fob_8c782c_img-0181.jpg)
/image%2F0724814%2F20190624%2Fob_e9505a_img-0193.jpg)
/image%2F0724814%2F20190624%2Fob_58e445_img-0210.jpg)
/image%2F0724814%2F20190624%2Fob_a83173_img-0216.jpg)
/image%2F0724814%2F20190624%2Fob_ecb9fb_img-0221.jpg)
/image%2F0724814%2F20190624%2Fob_d03098_img-0232.jpg)
/image%2F0724814%2F20190624%2Fob_e5e7c2_img-0233.jpg)
/image%2F0724814%2F20190624%2Fob_17b721_img-0239.jpg)
/image%2F0724814%2F20190624%2Fob_ded7e2_img-0242.jpg)
/image%2F0724814%2F20190624%2Fob_270c30_img-0244.jpg)
/image%2F0724814%2F20190624%2Fob_813fe2_img-0249.jpg)
/image%2F0724814%2F20190624%2Fob_51b63a_img-0254.jpg)
/image%2F0724814%2F20190624%2Fob_c2947f_img-0263.jpg)
/image%2F0724814%2F20190624%2Fob_97b3c7_img-0267.jpg)
/image%2F0724814%2F20190624%2Fob_868714_img-0276.jpg)
/image%2F0724814%2F20190624%2Fob_f720f3_img-0286.jpg)
/image%2F0724814%2F20190624%2Fob_3acb1d_img-0314.jpg)
/image%2F0724814%2F20190624%2Fob_5a29a2_img-0317.jpg)
/image%2F0724814%2F20190624%2Fob_f2f58a_img-0321.jpg)
/image%2F0724814%2F20190624%2Fob_e800d0_img-0336.jpg)
/image%2F0724814%2F20190624%2Fob_f98db1_img-0339.jpg)
/image%2F0724814%2F20190624%2Fob_f6fdda_img-0347.jpg)
/image%2F0724814%2F20190624%2Fob_4f47d2_img-0351.jpg)
/image%2F0724814%2F20190624%2Fob_1a966c_img-0365.jpg)
/image%2F0724814%2F20190624%2Fob_0066d9_img-0367.jpg)
/image%2F0724814%2F20190624%2Fob_85ff7a_img-0378.jpg)
/image%2F0724814%2F20190624%2Fob_99f5a3_img-0379.jpg)
/image%2F0724814%2F20190624%2Fob_b8e8aa_p1030985.jpg)
/image%2F0724814%2F20190624%2Fob_f697a3_p1040036.jpg)
/image%2F0724814%2F20190624%2Fob_4960f9_p1040085.jpg)
/image%2F0724814%2F20190620%2Fob_b33333_20190620-085154.jpg)
/image%2F0724814%2F20190620%2Fob_88dbd7_20190620-085307.jpg)
/image%2F0724814%2F20190620%2Fob_e1cf9c_20190620-085322.jpg)
/image%2F0724814%2F20190620%2Fob_348224_20190620-091606.jpg)
/image%2F0724814%2F20190620%2Fob_c71251_20190620-091615.jpg)
/image%2F0724814%2F20190620%2Fob_ebe3d6_20190620-091619.jpg)
/image%2F0724814%2F20190620%2Fob_e79fa6_20190620-091629.jpg)
/image%2F0724814%2F20190620%2Fob_25a198_20190620-091639.jpg)
/image%2F0724814%2F20190620%2Fob_c1ca19_20190620-100807.jpg)
/image%2F0724814%2F20190620%2Fob_5db8bd_20190620-103424.jpg)
/image%2F0724814%2F20190620%2Fob_d46bd0_20190620-103430.jpg)
/image%2F0724814%2F20190620%2Fob_346ae1_20190620-104014.jpg)
/image%2F0724814%2F20190620%2Fob_94d59a_20190620-141142.jpg)
/image%2F0724814%2F20190620%2Fob_333f66_20190620-141558.jpg)
/image%2F0724814%2F20190620%2Fob_015250_20190620-141824.jpg)
/image%2F0724814%2F20190626%2Fob_449ba1_20190620-124000.jpg)
/image%2F0724814%2F20190626%2Fob_4e0928_20190620-124005.jpg)
/image%2F0724814%2F20190626%2Fob_5c8bdd_20190620-142549-001.jpg)
/image%2F0724814%2F20190620%2Fob_3036e4_20190617-151402.jpg)
/image%2F0724814%2F20190620%2Fob_4a140f_20190617-153312.jpg)
/image%2F0724814%2F20190620%2Fob_038b7e_20190617-153328.jpg)
/image%2F0724814%2F20190617%2Fob_8b600c_20190613-111139.jpg)
/image%2F0724814%2F20190617%2Fob_f2db65_20190613-111426.jpg)
/image%2F0724814%2F20190617%2Fob_8645b0_20190613-131001.jpg)
/image%2F0724814%2F20190614%2Fob_6964fd_20190613-085050.jpg)
/image%2F0724814%2F20190614%2Fob_798fd7_20190613-112414.jpg)
/image%2F0724814%2F20190614%2Fob_893655_20190613-112423.jpg)
/image%2F0724814%2F20190614%2Fob_52f88b_20190613-112703.jpg)
/image%2F0724814%2F20190614%2Fob_bc9d2d_20190613-112953-0.jpg)
/image%2F0724814%2F20190614%2Fob_777b6b_20190613-112953.jpg)
/image%2F0724814%2F20190614%2Fob_3ed57f_20190613-113008.jpg)
/image%2F0724814%2F20190614%2Fob_6438fd_20190613-113137.jpg)
/image%2F0724814%2F20190614%2Fob_e8923c_20190613-113154.jpg)
/image%2F0724814%2F20190614%2Fob_c8fe96_20190613-113207.jpg)
/image%2F0724814%2F20190614%2Fob_bba51b_20190613-113247.jpg)
/image%2F0724814%2F20190614%2Fob_78245d_20190613-115007.jpg)
/image%2F0724814%2F20190614%2Fob_98ef8b_20190613-115008.jpg)
/image%2F0724814%2F20190614%2Fob_f26805_20190613-115341.jpg)
/image%2F0724814%2F20190614%2Fob_179700_20190613-115352-1.jpg)
/image%2F0724814%2F20190614%2Fob_344599_20190613-115543.jpg)
/image%2F0724814%2F20190614%2Fob_207e41_20190613-115820.jpg)
/image%2F0724814%2F20190614%2Fob_5c91ab_20190613-115900.jpg)
/image%2F0724814%2F20190614%2Fob_b51ad3_20190612-105453.jpg)
/image%2F0724814%2F20190614%2Fob_c4e3d6_20190612-105558.jpg)
/image%2F0724814%2F20190614%2Fob_f9e71f_20190612-125330.jpg)
